Regional Weather Roundup
Issued by NWS

Home | Current Version | Previous Version | Text Only | Print | Product List | Glossary On
Versions: 1 2 3 4 5 6 7 8 9 10 11 12 13 14 15 16 17 18 19 20 21 22 23 24 25 26 27 28 29 30 31 32 33 34 35 36 37 38 39 40 41 42 43 44 45 46 47 48 49 50
915
ASUS43 KMKX 252221
RWRWI

WISCONSIN REGIONAL WEATHER ROUNDUP
NATIONAL WEATHER SERVICE MILWAUKEE/SULLIVAN WI
500 PM CDT THU AUG 25 2016

NOTE: "FAIR" INDICATES FEW OR NO CLOUDS BELOW 12,000 FEET WITH NO
SIGNIFICANT WEATHER AND/OR OBSTRUCTIONS TO VISIBILITY.

WIZ001-002-006>008-014>016-023>028-252300-
NORTHWEST WISCONSIN

CITY           SKY/WX    TMP DP  RH WIND       PRES   REMARKS
SUPERIOR ARPT  PTSUNNY   68  55  61 W10       29.99S
ASHLAND        PTSUNNY   71  53  52 W16G26    29.98R
HAYWARD        CLOUDY    69  53  56 W9        30.02R
SIREN          CLOUDY    70  51  52 W15G22    30.05R
CUMBERLAND     PTSUNNY   68  52  56 W16G24    30.04R
RICE LAKE      MOSUNNY   71  54  54 W13G21    30.05R
CHETEK         NOT AVBL
LADYSMITH      MOSUNNY   73  55  54 W13       30.03S
EAU CLAIRE     SUNNY     75  55  49 W17G23    30.02R
MENOMONIE      MOSUNNY   74  54  49 W12       30.04S
NEW RICHMOND   MOSUNNY   71  53  52 W16G22    30.06R
OSCEOLA        MOSUNNY   70  54  56 W18       30.09R
$$

WIZ003>005-009-010-017-018-252300-
NORTH CENTRAL WISCONSIN

CITY           SKY/WX    TMP DP  RH WIND       PRES   REMARKS
MANITOWISH WTR NOT AVBL
ARBOR VITAE    SUNNY     73  53  48 W17G25    29.99R
WOODRUFF       SUNNY     73  53  48 W17G25    29.99R
RHINELANDER    MOSUNNY   75  53  46 W22G30    29.99R
EAGLE RIVER    MOSUNNY   74  50  43 W13G26    29.97R
LAND O LAKES   MOSUNNY   73  51  45 W12       29.97R
PHILLIPS       PTSUNNY   70  56  61 W8        30.00R
TOMAHAWK       MOSUNNY   73  54  51 W12G22    30.00R
MEDFORD        MOSUNNY   73  56  55 W13G18    30.01S
MERRILL        MOSUNNY   75  58  54 W15G23    30.00S
$$

WIZ029-030-035-036-043>047-252300-
CENTRAL WISCONSIN

CITY           SKY/WX    TMP DP  RH WIND       PRES   REMARKS
WAUSAU         PTSUNNY   76  58  53 W15G22    29.99S
MOSINEE        MOSUNNY   75  59  57 W16       30.02S
MARSHFIELD     MOSUNNY   76  58  53 W14G21    30.02R
STEVENS POINT  PTSUNNY   75  58  54 W10G18    30.01S
WAUPACA        SUNNY     81  58  45 SW12G17   30.00S HX  81
WAUTOMA        SUNNY     79  60  52 W14       30.02S HX  80
WISC RAPIDS    PTSUNNY   78  60  53 W16G23    30.03S
CAMP DOUGLAS   MOSUNNY   77  63  61 W12       30.03S
$$

WIZ011>013-019>022-031-037>040-048>050-252300-
NORTHEAST WISCONSIN

CITY           SKY/WX    TMP DP  RH WIND       PRES   REMARKS
ANTIGO         MOSUNNY   74  58  58 W14G23    30.00S
SHAWANO        MOSUNNY   80  58  46 W8G17     29.98S HX  80
OCONTO         NOT AVBL
STURGEON BAY   SUNNY     78  62  57 SW12      29.96F HX  80
GREEN BAY      MOSUNNY   79  62  56 W9        29.98F HX  80
MANITOWOC      SUNNY     78  57  48 W12       30.00S
APPLETON       MOSUNNY   79  55  44 W13       29.99F
CLINTONVILLE   MOSUNNY   79  54  41 W15G23    29.99R
OSHKOSH        SUNNY     78  61  55 W14G21    30.00S HX  80
$$

WIZ032>034-041-042-053>061-252300-
SOUTHWEST WISCONSIN

CITY           SKY/WX    TMP DP  RH WIND       PRES   REMARKS
LA CROSSE      CLOUDY    80  61  52 SW9       30.04R HX  81
SPARTA         MOSUNNY   76  62  61 W6        30.05S
VIROQUA        CLOUDY    74  62  66 SW7       30.08R
BOSCOBEL       MOSUNNY   78  62  57 W7        30.07R HX  80
PRAIRIE DU CHI CLOUDY    78  60  53 SW5       30.06F
PLATTEVILLE    CLOUDY    73  65  74 W5        30.09R
$$

WIZ056-057-062-063-064-067-068-252300-
SOUTH CENTRAL WISCONSIN

CITY           SKY/WX    TMP DP  RH WIND       PRES   REMARKS
REEDSBURG      NOT AVBL
BARABOO/DELLS  SUNNY     76  58  53 W10       30.06R
LONE ROCK      SUNNY     78  61  55 W8        30.06S HX  80
MINERAL POINT  CLOUDY    75  63  64 W6        30.09R
MADISON        CLOUDY    76  61  59 VRB3      30.05R
MIDDLETON      CLOUDY    76  63  64 W8        30.06S
WATERTOWN      PTSUNNY   76  61  60 SW5       30.03F
MONROE         CLOUDY    77  59  53 NW3       30.07R
JANESVILLE     PTSUNNY   81  61  50 NW7       30.05S HX  81
$$

WIZ051-052-058>065-066-070>072-252300-
SOUTHEAST WISCONSIN

CITY           SKY/WX    TMP DP  RH WIND       PRES   REMARKS
MILWAUKEE      CLOUDY    80  63  55 SE6       30.03R HX  81
WAUKESHA       SUNNY     75  57  53 W10       30.04S
MILWAUKEE/TIMM SUNNY     79  54  41 W7        30.03S
RACINE         CLOUDY    80  60  50 W7        30.04R HX  81
BURLINGTON     CLOUDY    75  57  52 W6        30.04S
KENOSHA        CLOUDY    78  63  59 W10       30.03S HX  80
FOND DU LAC    SUNNY     79  59  50 W12       30.02S HX  80
SHEBOYGAN      SUNNY     80  57  45 W10G18    30.00S HX  80
WEST BEND      SUNNY     77  55  47 W8        30.03S
JUNEAU         CLOUDY    75  61  63 SW8       30.05R
$$

LSZ147-162-252300-
LAKE SUPERIOR

STATION/POSITION TIME  TEMP    WIND        PRES    WAVE
                       AIR SEA DIR/SP/G            HT/PER
                 (UTC) (F)     (DEG/KT/KT) (MB)    (FT/S)
W MID LAKE BUOY  2150   69 68  260/ 21/ 25 1011.8R   5/ 6
DEVILS ISLAND    2200   67     240/ 23/ 26 1013.7R
PORT WING        2140   69     250/ 11/ 20 1014.9R
SAXON HARBOR     2100   74     290/ 12/ 17 1013.5S
$$

LMZ867-665-643>646-252300-
LAKE MICHIGAN

STATION/POSITION TIME  TEMP    WIND        PRES    WAVE
                       AIR SEA DIR/SP/G            HT/PER
                 (UTC) (F)     (DEG/KT/KT) (MB)    (FT/S)
CHAMBERS ISLAND  2100   76     190/  7/ 12 1013.5F
S GREEN BAY BUOY 2130   77 73  250/ 14/ 16 1014.2F
N MID LAKE BUOY  2150   71 70  200/ 16/ 19 1013.0F   1/ 5
NORTHPORT PIER   2100   79     220/  5/ 12 1013.5F
SISTER BAY       2137   78     230/ 15/ 18   N/A
ALGOMA LAKESHORE 2100          300/  6/ 11   N/A
KEWAUNEE LAKESHO 2100   78     250/  5/ 10 1014.7F
SHEBOYGAN LAKESH 2200   79     270/  8/ 14 1015.0F
PORT WASHINGTON  2200   81     280/  6/ 14 1016.9S
ATWATER BUOY     2200   65     190/  4/  4   N/A
MILWAUKEE LAKESH 2210   69     110/  4/  6   N/A
S MID LAKE BUOY  2150   74 75   CALM  /  2 1016.0F   1/ 4
KENOSHA   LAKESH 2200   72     170/  8/  9 1016.3S
$$

TC  - TEMPERATURE IN CELSIUS
VSB - VISIBILITY IN STATUTE MILES
WCI - WIND CHILL INDEX
HX  - HEAT INDEX





USA.gov is the U.S. government's official web portal to all federal, state and local government web resources and services.